[[{"header":{"parameterUnit":"m.s-1","parameterCategory":1,"la1":30.2991,"la2":30.254,"lo1":-89.0895,"lo2":-89.0444,"dy":0.0017,"dx":0.0017,"nx":28,"ny":28,"refTime":"2025-03-08T03:00:00:Z","depth":0,"parameterNumber":2,"parameterNumberName":"U-component_of_WINDS"},"data":[0,0,0,0,0,0,0,0,0,0,0,0,0,0,0,0,0,0,0,0,0,0,0,0,0,0,0,0,0,0,0,0,0,0,0,0,0,0,0,0,0,0,0,0,0,0,0,0,0,0,0,0,0,0,0,0,0,0,-1.5226,-1.5227,0,-1.5353,-1.5354,-1.5356,-1.5354,-1.5352,-1.535,-1.5349,-1.548,-1.5485,-1.549,0,0,0,0,0,0,0,0,0,0,0,0,0,-1.4983,-1.4988,-1.5226,-1.5227,-1.5229,-1.5353,-1.5355,-1.5356,-1.5354,-1.5352,-1.535,-1.5348,-1.5479,-1.5485,-1.5491,0,0,0,0,0,0,0,0,0,0,0,0,0,-1.5097,-1.4989,-1.5225,-1.5243,-1.5245,-1.5352,-1.5355,-1.5357,-1.5354,-1.5352,-1.5349,-1.5347,-1.5477,-1.5484,-1.5492,-1.559,0,0,-1.5515,-1.5518,0,0,0,0,0,0,0,0,-1.5091,-1.5106,-1.5239,-1.5242,-1.5245,-1.5335,-1.5317,-1.5435,-1.5355,-1.5313,-1.5348,-1.5346,-1.5434,-1.5445,-1.5475,-1.5596,-1.5602,-1.5516,-1.552,-1.5524,-1.5526,0,0,0,0,0,0,0,-1.5083,-1.5101,-1.5276,-1.524,-1.5244,-1.5245,-1.5258,-1.534,-1.5386,-1.5316,-1.5317,-1.5332,-1.5435,-1.5467,-1.5478,-1.5604,-1.5515,-1.5522,-1.5527,-1.553,-1.5816,-1.5819,0,0,0,0,0,0,-1.5071,-1.5094,-1.5272,-1.528,-1.516,-1.5251,-1.5266,-1.5309,-1.5386,-1.5395,-1.5334,-1.5331,-1.5455,-1.5469,-1.5482,-1.5605,-1.5524,-1.5531,-1.5535,-1.5813,-1.5816,-1.582,0,0,0,0,0,0,-1.5066,-1.5087,-1.5267,-1.5187,-1.521,-1.5258,-1.5306,-1.5312,-1.5344,-1.5399,-1.5407,-1.5358,-1.5454,-1.5471,-1.5564,-1.5609,-1.5534,-1.5541,-1.5809,-1.5814,-1.5818,-1.585,0,0,0,0,0,0,-1.5059,-1.5085,-1.5123,-1.5188,-1.5214,-1.5346,-1.5308,-1.5317,-1.5357,-1.5355,-1.5423,-1.5432,-1.5453,-1.5553,-1.5572,-1.5619,-1.5547,-1.5805,-1.5811,-1.5817,-1.5845,-1.5855,-1.5863,0,0,0,0,0,-1.505,-1.5126,-1.5124,-1.5146,-1.5262,-1.5348,-1.5364,-1.5386,-1.5361,-1.54,-1.5435,-1.543,-1.5601,-1.5562,-1.5583,-1.5633,-1.5803,-1.581,-1.5816,-1.5841,-1.5853,-1.5863,0,0,0,0,0,0,-1.5065,-1.5135,-1.5134,-1.5233,-1.5285,-1.5348,-1.5397,-1.5398,-1.5458,-1.5454,-1.5479,-1.5495,-1.5588,-1.5619,-1.5575,-1.5734,-1.5699,-1.571,-1.571,-1.5722,-1.5731,-1.5722,-1.5553,0,0,0,0,0,-1.508,-1.5143,-1.5201,-1.5283,-1.5309,-1.5349,-1.5387,-1.54,-1.5455,-1.5477,-1.5519,-1.5573,-1.5639,-1.5682,-1.5745,-1.5849,-1.5865,-1.5894,-1.5903,-1.591,-1.5921,-1.598,-1.5994,-1.5842,-1.5842,-1.5842,0,0,-1.5111,-1.5157,-1.5196,-1.5288,-1.5329,-1.5396,-1.5367,-1.5438,-1.5489,-1.5488,-1.5578,-1.5611,-1.5673,-1.5772,-1.5817,-1.5801,-1.5966,-1.5919,-1.5924,-1.5931,-1.5988,-1.6003,-1.6016,-1.5846,-1.5846,-1.5845,0,0,-1.5203,-1.5243,-1.5317,-1.5359,-1.5423,-1.5448,-1.5466,-1.553,-1.5551,-1.5642,-1.5644,-1.5704,-1.5816,-1.5861,-1.5899,-1.6008,-1.6007,-1.6028,-1.6077,-1.6135,-1.6147,-1.6157,-1.6199,-1.6213,-1.6038,-1.6038,-1.6038,0,-1.5234,-1.5333,-1.5355,-1.5427,-1.5468,-1.547,-1.5546,-1.5586,-1.5667,-1.5696,-1.5677,-1.582,-1.5861,-1.5972,-1.5999,-1.6028,-1.6051,-1.6022,-1.6143,-1.6154,-1.6165,-1.6204,-1.6219,-1.604,-1.604,-1.604,-1.604,0,-1.537,-1.5439,-1.5491,-1.557,-1.5616,-1.569,-1.5723,-1.5768,-1.5777,-1.5806,-1.5899,-1.5949,-1.6024,-1.6051,-1.606,-1.6164,-1.6152,-1.6137,-1.6103,-1.6181,-1.6219,-1.6234,-1.6044,-1.6043,-1.6042,-1.6041,0,0,-1.5475,-1.5564,-1.5583,-1.562,-1.569,-1.5745,-1.5819,-1.5892,-1.5931,-1.5987,-1.6051,-1.6147,-1.6135,-1.6177,-1.6192,-1.6242,-1.6328,-1.6221,-1.6223,-1.6242,-1.6448,-1.646,-1.6477,-1.6327,-1.633,-1.6332,-1.6444,0,-1.5575,-1.5707,-1.5729,-1.5844,-1.591,-1.5913,-1.5978,-1.6029,-1.6058,-1.6118,-1.615,-1.6218,-1.6195,-1.6221,-1.6271,-1.6307,-1.637,-1.6299,-1.6389,-1.6392,-1.6375,-1.6497,-1.6509,-1.6612,-1.6458,-1.6461,-1.6463,0,-1.571,-1.577,-1.5893,-1.5956,-1.5984,-1.6042,-1.6112,-1.6169,-1.6227,-1.6245,-1.6293,-1.6301,-1.638,-1.6341,-1.645,-1.6401,-1.6439,-1.6462,-1.6467,-1.6478,-1.6433,-1.6513,-1.6645,-1.6661,-1.6486,-1.6484,-1.6482,0,-1.5777,-1.5888,-1.5977,-1.6007,-1.6083,-1.6124,-1.6157,-1.6213,-1.6256,-1.6317,-1.6346,-1.6415,-1.6453,-1.6507,-1.6535,-1.6503,-1.6644,-1.6606,-1.6662,-1.6661,-1.6693,-1.6691,-1.6835,-1.6713,-1.6713,-1.6713,-1.6712,0,-1.5888,-1.5964,-1.6008,-1.6062,-1.6148,-1.6172,-1.6256,-1.6289,-1.6338,-1.64,-1.6407,-1.6465,-1.6497,-1.656,-1.6582,-1.6671,-1.6687,-1.6705,-1.671,-1.6706,-1.6704,-1.6732,-1.6727,-1.6717,-1.6716,-1.6715,-1.6715,0,-1.5978,-1.601,-1.6107,-1.6171,-1.6189,-1.6249,-1.6304,-1.6358,-1.6386,-1.6465,-1.6484,-1.6529,-1.6604,-1.6636,-1.6728,-1.6743,-1.6846,-1.6844,-1.6826,-1.6828,-1.6883,-1.6879,-1.7053,-1.7078,-1.6938,-1.6939,-1.694,0,-1.6048,-1.6106,-1.6176,-1.6218,-1.6253,-1.632,-1.6364,-1.6391,-1.6437,-1.6509,-1.6554,-1.6629,-1.6691,-1.681,-1.6852,-1.6922,-1.6925,-1.6981,-1.6935,-1.693,-1.6928,-1.6925,-1.6932,-1.699,-1.6991,-1.6992,-1.6993,0,-1.6169,-1.6183,-1.6246,-1.6316,-1.6368,-1.6424,-1.6479,-1.6513,-1.6549,-1.66,-1.6677,-1.6725,-1.6819,-1.6894,-1.6967,-1.7003,-1.7005,-1.7007,-1.7024,-1.7021,-1.7009,-1.7018,-1.6851,-1.7003,-1.7002,-1.7001,-1.7001,-1.7,-1.6253,-1.6306,-1.6364,-1.6435,-1.6479,-1.653,-1.6585,-1.662,-1.6684,-1.6763,-1.6775,-1.6857,-1.6916,-1.7015,-1.7053,-1.7119,-1.7105,-1.7129,-1.7136,-1.7142,-1.7147,-1.6996,-1.7132,-1.7132,-1.7131,-1.7131,-1.7131,0,-1.6377,-1.6414,-1.6479,-1.6556,-1.6612,-1.6608,-1.6669,-1.6717,-1.6789,-1.6843,-1.6904,-1.6993,-1.7066,-1.7113,-1.7187,-1.7231,-1.7234,-1.725,-1.7248,-1.7257,-1.7153,-1.7132,-1.7246,-1.7246,-1.7246,-1.7246,-1.7246,-1.7246,-1.6448,-1.6538,-1.6558,-1.667,-1.6708,-1.6789,-1.6824,-1.6872,-1.6916,-1.7015,-1.7076,-1.7106,-1.7158,-1.7236,-1.7303,-1.7315,-1.7344,-1.7361,-1.7372,-1.7275,-1.7264,-1.7252,-1.7233,-1.7366,-1.7366,-1.747,-1.7471,-1.7472]},{"header":{"parameterUnit":"m.s-1","parameterCategory":1,"la1":30.2991,"la2":30.254,"lo1":-89.0895,"lo2":-89.0444,"dy":0.0017,"dx":0.0017,"nx":28,"ny":28,"refTime":"2025-03-08T03:00:00:Z","depth":0,"parameterNumber":3,"parameterNumberName":"V-component_of_WINDS"},"data":[0,0,0,0,0,0,0,0,0,0,0,0,0,0,0,0,0,0,0,0,0,0,0,0,0,0,0,0,0,0,0,0,0,0,0,0,0,0,0,0,0,0,0,0,0,0,0,0,0,0,0,0,0,0,0,0,0,0,-2.0558,-2.0558,0,-2.0572,-2.0572,-2.0572,-2.0565,-2.0565,-2.0565,-2.0564,-2.0578,-2.0578,-2.0579,0,0,0,0,0,0,0,0,0,0,0,0,0,-2.0525,-2.0525,-2.0558,-2.0558,-2.0559,-2.0572,-2.0572,-2.0572,-2.0566,-2.0565,-2.0565,-2.0564,-2.0578,-2.0578,-2.0579,0,0,0,0,0,0,0,0,0,0,0,0,0,-2.0539,-2.0526,-2.0558,-2.0557,-2.0557,-2.0572,-2.0572,-2.0572,-2.0566,-2.0565,-2.0565,-2.0564,-2.0577,-2.0578,-2.0579,-2.0596,0,0,-2.0582,-2.0583,0,0,0,0,0,0,0,0,-2.0538,-2.054,-2.0557,-2.0557,-2.0557,-2.0566,-2.0565,-2.058,-2.0566,-2.0562,-2.0564,-2.0564,-2.0574,-2.0576,-2.0579,-2.0597,-2.0597,-2.0583,-2.0583,-2.0584,-2.0584,0,0,0,0,0,0,0,-2.0537,-2.0539,-2.0564,-2.0557,-2.0557,-2.0555,-2.0556,-2.0568,-2.0571,-2.0563,-2.0562,-2.0564,-2.0574,-2.0578,-2.058,-2.0598,-2.0583,-2.0583,-2.0584,-2.0584,-2.0628,-2.0628,0,0,0,0,0,0,-2.0536,-2.0539,-2.0563,-2.0564,-2.0546,-2.0556,-2.0558,-2.0564,-2.0571,-2.0572,-2.0564,-2.0563,-2.0577,-2.0578,-2.058,-2.0599,-2.0584,-2.0585,-2.0585,-2.0627,-2.0628,-2.0629,0,0,0,0,0,0,-2.0536,-2.0539,-2.0563,-2.0551,-2.0554,-2.0557,-2.0564,-2.0564,-2.0569,-2.0572,-2.0573,-2.0568,-2.0577,-2.0579,-2.0592,-2.06,-2.0585,-2.0586,-2.0627,-2.0628,-2.0628,-2.0639,0,0,0,0,0,0,-2.0535,-2.0538,-2.0545,-2.0551,-2.0555,-2.0575,-2.0565,-2.0565,-2.057,-2.0569,-2.0576,-2.0576,-2.0576,-2.059,-2.0593,-2.0601,-2.0587,-2.0626,-2.0627,-2.0628,-2.0637,-2.064,-2.0641,0,0,0,0,0,-2.0534,-2.0548,-2.0546,-2.0549,-2.0564,-2.0575,-2.0577,-2.0577,-2.0571,-2.0578,-2.058,-2.0576,-2.0598,-2.0592,-2.0595,-2.0603,-2.0626,-2.0627,-2.0628,-2.0637,-2.0639,-2.0641,0,0,0,0,0,0,-2.0543,-2.0549,-2.0546,-2.0563,-2.0569,-2.0574,-2.0583,-2.058,-2.0587,-2.0586,-2.0585,-2.0587,-2.06,-2.0603,-2.0595,-2.0619,-2.0611,-2.0613,-2.0617,-2.0619,-2.0621,-2.062,-2.0588,0,0,0,0,0,-2.0547,-2.0557,-2.0561,-2.0575,-2.0578,-2.058,-2.0585,-2.0584,-2.059,-2.0592,-2.0595,-2.0601,-2.0609,-2.0614,-2.0622,-2.0638,-2.0638,-2.0645,-2.0647,-2.0648,-2.065,-2.0657,-2.0659,-2.0633,-2.0633,-2.0632,0,0,-2.0556,-2.056,-2.0566,-2.0577,-2.0582,-2.059,-2.0582,-2.0592,-2.0599,-2.0594,-2.0606,-2.0609,-2.0614,-2.0629,-2.0635,-2.0631,-2.0657,-2.065,-2.0651,-2.0652,-2.0658,-2.0661,-2.0663,-2.0633,-2.0633,-2.0633,0,0,-2.0576,-2.058,-2.0592,-2.0596,-2.0602,-2.0603,-2.0606,-2.0611,-2.0613,-2.0625,-2.0621,-2.0628,-2.0643,-2.0647,-2.065,-2.067,-2.0666,-2.0672,-2.0682,-2.069,-2.0692,-2.0694,-2.07,-2.0702,-2.0674,-2.0674,-2.0674,0,-2.0586,-2.06,-2.0599,-2.0609,-2.0613,-2.0609,-2.062,-2.0624,-2.0632,-2.0635,-2.0631,-2.0648,-2.0651,-2.0666,-2.067,-2.0674,-2.0676,-2.0672,-2.0692,-2.0693,-2.0695,-2.0701,-2.0703,-2.0675,-2.0674,-2.0674,-2.0674,0,-2.0611,-2.062,-2.0629,-2.0637,-2.0642,-2.0653,-2.0653,-2.0659,-2.0657,-2.0658,-2.067,-2.0674,-2.0681,-2.0685,-2.0684,-2.0699,-2.0696,-2.0692,-2.0684,-2.0698,-2.0704,-2.0706,-2.0675,-2.0675,-2.0675,-2.0675,0,0,-2.0639,-2.0644,-2.0648,-2.065,-2.0656,-2.0663,-2.0673,-2.068,-2.0685,-2.069,-2.0698,-2.0709,-2.0704,-2.0709,-2.0708,-2.0714,-2.0728,-2.0708,-2.0709,-2.0711,-2.0744,-2.0747,-2.0749,-2.0725,-2.0726,-2.0726,-2.0743,0,-2.0658,-2.0676,-2.0675,-2.0691,-2.0699,-2.0694,-2.0702,-2.0706,-2.0707,-2.0713,-2.0714,-2.0722,-2.0716,-2.0718,-2.0724,-2.0725,-2.0734,-2.0724,-2.0732,-2.0732,-2.073,-2.0752,-2.0756,-2.0772,-2.0745,-2.0745,-2.0746,0,-2.0685,-2.069,-2.0707,-2.071,-2.0713,-2.0721,-2.0727,-2.0733,-2.0737,-2.0737,-2.0741,-2.0738,-2.0747,-2.0739,-2.0751,-2.0744,-2.0747,-2.0748,-2.0748,-2.0749,-2.074,-2.0753,-2.0777,-2.0779,-2.0749,-2.0749,-2.0749,0,-2.0702,-2.0714,-2.0725,-2.0728,-2.0732,-2.0737,-2.0739,-2.0742,-2.0746,-2.0751,-2.0753,-2.0759,-2.0762,-2.0767,-2.0765,-2.076,-2.0777,-2.0769,-2.0777,-2.0777,-2.0781,-2.0781,-2.0805,-2.0783,-2.0783,-2.0783,-2.0783,0,-2.0724,-2.0735,-2.0733,-2.074,-2.0751,-2.0749,-2.0759,-2.0761,-2.0763,-2.077,-2.0765,-2.0772,-2.0769,-2.0775,-2.0774,-2.0783,-2.0785,-2.0785,-2.0784,-2.0785,-2.0785,-2.0787,-2.0786,-2.0784,-2.0784,-2.0784,-2.0784,0,-2.0746,-2.0745,-2.0757,-2.0759,-2.076,-2.0768,-2.077,-2.0776,-2.0775,-2.0784,-2.0785,-2.0785,-2.0791,-2.079,-2.0798,-2.0797,-2.0808,-2.0807,-2.0807,-2.0806,-2.0814,-2.0813,-2.084,-2.0843,-2.082,-2.082,-2.0821,0,-2.076,-2.0768,-2.0771,-2.0774,-2.0776,-2.0783,-2.0787,-2.0784,-2.0788,-2.0792,-2.0797,-2.0803,-2.0808,-2.0818,-2.0818,-2.0823,-2.0822,-2.0831,-2.0822,-2.0822,-2.0821,-2.082,-2.0821,-2.0832,-2.0833,-2.0833,-2.0833,0,-2.0785,-2.0784,-2.079,-2.0795,-2.0799,-2.0803,-2.0806,-2.081,-2.0807,-2.0812,-2.0818,-2.0822,-2.0828,-2.0834,-2.0838,-2.0839,-2.0836,-2.0835,-2.0837,-2.0838,-2.0838,-2.0837,-2.0811,-2.0835,-2.0835,-2.0835,-2.0834,-2.0834,-2.0803,-2.0809,-2.0812,-2.0817,-2.082,-2.0822,-2.0828,-2.0828,-2.0833,-2.0838,-2.0836,-2.0843,-2.0845,-2.085,-2.0852,-2.0857,-2.0854,-2.0857,-2.0857,-2.0858,-2.0858,-2.0837,-2.0858,-2.0858,-2.0858,-2.0858,-2.0858,0,-2.0828,-2.0828,-2.0834,-2.0838,-2.0842,-2.0838,-2.0841,-2.0845,-2.0851,-2.0853,-2.0857,-2.0863,-2.0868,-2.0868,-2.0873,-2.0877,-2.0875,-2.0878,-2.0877,-2.0878,-2.0862,-2.0859,-2.0879,-2.0879,-2.0879,-2.0879,-2.0879,-2.0879,-2.0841,-2.085,-2.0849,-2.0859,-2.086,-2.0866,-2.0868,-2.087,-2.0872,-2.0879,-2.0883,-2.0883,-2.0884,-2.0888,-2.0892,-2.0892,-2.0893,-2.0897,-2.0896,-2.0881,-2.0879,-2.0877,-2.0874,-2.0897,-2.0897,-2.0911,-2.0911,-2.0911]}]]